Waarnemingen

Advertentie
Mijn weer
Hoogeveen aws, Nederland (6279): temperatuur & dauwpunt: 20.04.2017 06:00:00 - 26.04.2017 06:00:00 (CEST)Hoogeveen aws, Nederland (6279): temperatuur 5cm: 20.04.2017 06:00:00 - 26.04.2017 06:00:00 (CEST)Hoogeveen aws, Nederland (6279): windsnelheid & windstoten: 20.04.2017 06:00:00 - 26.04.2017 06:00:00 (CEST)Hoogeveen aws, Nederland (6279): windrichting: 20.04.2017 06:00:00 - 26.04.2017 06:00:00 (CEST)Hoogeveen aws, Nederland (6279): luchtdruk: 20.04.2017 06:00:00 - 26.04.2017 06:00:00 (CEST)Hoogeveen aws, Nederland (6279): zicht: 20.04.2017 06:00:00 - 26.04.2017 06:00:00 (CEST)Hoogeveen aws, Nederland (6279): neerslag: 20.04.2017 06:00:00 - 26.04.2017 06:00:00 (CEST)
Datum & Tijd tt [°C] td [°C] tt 5cm [°C] ff [km/u] ff [kn] fx [km/u] fx [kn] dd ppp [hPa] vv [km] rr [mm]
26.04.2017 06:00:00 0,5 0,3 -1,1 5 3 - - WZW 1010,3 1,3 -
26.04.2017 05:00:00 0,7 0,6 -0,2 4 2 7 4 ZW 1010,5 2,8 0,0
26.04.2017 04:00:00 0,8 0,6 -0,3 7 4 7 4 ZW 1010,1 7 0,0
26.04.2017 03:00:00 1,3 1,1 0,2 7 4 14 8 WZW 1009,9 11 0,0
26.04.2017 02:00:00 1,5 0,9 0,9 7 4 14 8 ZW 1009,8 18 0,0
26.04.2017 01:00:00 2,0 1,0 0,8 7 4 14 8 ZZW 1009,7 27 0,0
26.04.2017 00:00:00 2,8 1,7 2,3 11 6 18 10 ZW 1009,8 32 0,0
25.04.2017 23:00:00 3,9 2,4 3,3 14 8 22 12 ZW 1009,6 35 0,0
25.04.2017 22:00:00 4,5 2,6 3,9 11 6 18 10 ZW 1009,5 4,3 0,7
25.04.2017 21:00:00 5,1 1,9 4,1 14 8 22 12 W 1009,3 39 0,0
25.04.2017 20:00:00 6,0 2,6 5,2 14 8 43 23 W 1009,2 49 0,0
25.04.2017 19:00:00 7,6 0,9 7,7 25 14 43 23 W 1008,9 41 0,0
25.04.2017 18:00:00 8,6 -1,0 9,0 25 14 43 23 W 1008,6 47 0,0
25.04.2017 17:00:00 7,8 -0,2 7,7 25 14 43 23 W 1008,5 37 0,0
25.04.2017 16:00:00 9,2 1,1 8,0 25 14 36 19 W 1008,4 43 0,0
25.04.2017 15:00:00 8,2 1,9 7,2 18 10 29 16 NW 1008,2 38 0,1
25.04.2017 14:00:00 6,6 2,8 7,1 25 14 40 21 NNW 1007,9 35 0,0
25.04.2017 13:00:00 6,0 4,3 5,2 32 18 58 31 NNW 1007,0 12 0,0
25.04.2017 12:00:00 7,6 4,2 8,0 22 12 36 19 W 1005,7 43 0,2
25.04.2017 11:00:00 4,2 2,0 3,9 22 12 40 21 W 1005,3 9 1,2
25.04.2017 10:00:00 6,2 2,9 5,2 25 14 47 25 WZW 1004,5 40 0,2
25.04.2017 09:00:00 5,4 2,2 5,2 29 16 36 19 W 1004,3 23 0,0
25.04.2017 08:00:00 4,5 2,3 4,0 18 10 29 16 ZW 1004,1 39 0,0
25.04.2017 07:00:00 3,1 1,3 2,2 11 6 18 10 ZW 1003,9 48 0,0
25.04.2017 06:00:00 3,5 2,1 3,1 14 8 43 23 W 1004,0 50 0,0
25.04.2017 05:00:00 4,2 3,4 3,7 11 6 29 16 W 1003,9 39 0,2
25.04.2017 04:00:00 5,6 4,8 5,1 14 8 25 14 ZW 1004,1 12 0,2
25.04.2017 03:00:00 5,7 4,9 5,3 11 6 14 8 ZW 1004,5 33 0,0
25.04.2017 02:00:00 5,6 4,8 5,2 11 6 14 8 ZZW 1004,7 34 0,0
25.04.2017 01:00:00 5,8 5,0 5,5 7 4 11 6 ZW 1005,8 35 0,0
25.04.2017 00:00:00 5,9 4,9 5,6 7 4 11 6 WZW 1006,5 34 0,3
24.04.2017 23:00:00 5,9 5,3 5,7 7 4 29 16 NW 1007,1 21 1,0
24.04.2017 22:00:00 7,1 6,6 6,8 7 4 22 12 WNW 1007,8 9 1,6
24.04.2017 21:00:00 8,0 7,4 7,7 11 6 22 12 W 1007,7 7 1,3
24.04.2017 20:00:00 8,7 7,5 8,4 14 8 25 14 W 1008,4 13 0,1
24.04.2017 19:00:00 9,7 7,7 9,3 18 10 29 16 WZW 1009,0 16 0,3
24.04.2017 18:00:00 10,0 7,9 9,7 22 12 32 18 WZW 1009,6 13 0,3
24.04.2017 17:00:00 9,6 8,2 9,7 22 12 43 23 W 1010,3 8 0,4
24.04.2017 16:00:00 11,3 6,9 10,6 29 16 43 23 WZW 1010,9 32 0,0
24.04.2017 15:00:00 11,2 7,1 11,4 29 16 47 25 WZW 1011,5 35 0,0
24.04.2017 14:00:00 11,5 6,5 10,9 29 16 50 27 W 1012,1 39 0,1
24.04.2017 13:00:00 10,5 7,7 9,7 25 14 40 21 WZW 1012,7 16 0,2
24.04.2017 12:00:00 10,9 6,0 10,9 32 18 47 25 WZW 1013,0 22 0,0
24.04.2017 11:00:00 10,7 5,3 10,7 29 16 50 27 WZW 1013,6 22 0,0
24.04.2017 10:00:00 9,9 4,4 10,0 32 18 50 27 WZW 1013,7 21 0,0
24.04.2017 09:00:00 8,5 2,8 8,1 25 14 47 25 ZW 1014,6 28 0,0
24.04.2017 08:00:00 6,7 2,0 6,2 25 14 40 21 ZZW 1015,0 36 0,0
24.04.2017 07:00:00 5,8 1,9 5,3 22 12 32 18 ZZW 1015,9 38 0,0
24.04.2017 06:00:00 5,1 1,9 4,6 18 10 29 16 ZZW 1016,5 42 0,0
24.04.2017 05:00:00 4,5 1,9 3,8 14 8 22 12 ZZW 1017,8 35 0,0
24.04.2017 04:00:00 3,1 1,0 2,2 11 6 18 10 ZZW 1018,8 31 0,0
24.04.2017 03:00:00 2,8 0,6 1,8 14 8 18 10 ZZW 1019,7 37 0,0
24.04.2017 02:00:00 2,5 0,4 1,2 11 6 14 8 ZZW 1020,7 44 0,0
24.04.2017 01:00:00 3,0 0,7 2,2 11 6 14 8 ZZW 1021,7 34 0,0
24.04.2017 00:00:00 3,2 0,7 2,1 7 4 11 6 ZW 1022,5 33 0,0
23.04.2017 23:00:00 2,1 0,0 1,2 7 4 7 4 ZZW 1023,1 40 0,0
23.04.2017 22:00:00 4,8 -0,1 2,7 7 4 11 6 WZW 1023,7 50 0,0
23.04.2017 21:00:00 5,3 0,2 3,8 7 4 18 10 W 1023,7 50 0,0
23.04.2017 20:00:00 8,3 0,2 7,3 14 8 25 14 WNW 1023,9 50 0,0
23.04.2017 19:00:00 9,0 0,8 8,4 14 8 32 18 NNW 1024,0 39 0,0
23.04.2017 18:00:00 9,3 -0,4 9,3 18 10 36 19 WNW 1024,2 35 0,0
23.04.2017 17:00:00 8,9 0,3 8,7 22 12 32 18 NW 1024,3 49 0,0
23.04.2017 16:00:00 9,2 0,4 10,1 22 12 36 19 NNW 1024,4 42 0,0
23.04.2017 15:00:00 9,1 0,4 9,2 22 12 36 19 NW 1024,7 40 0,0
23.04.2017 14:00:00 9,0 2,5 8,8 18 10 40 21 WNW 1024,9 35 0,0
23.04.2017 13:00:00 9,4 0,9 10,3 18 10 36 19 WNW 1024,8 28 0,0
23.04.2017 12:00:00 8,2 0,7 7,8 25 14 43 23 NW 1025,0 36 0,0
23.04.2017 11:00:00 7,9 1,9 7,2 25 14 40 21 WNW 1024,9 33 0,0
23.04.2017 10:00:00 6,1 2,8 6,4 29 16 50 27 WNW 1024,8 18 0,0
23.04.2017 09:00:00 6,1 2,5 6,2 14 8 29 16 W 1024,7 29 0,0
23.04.2017 08:00:00 5,1 1,5 5,0 11 6 25 14 W 1024,6 33 0,0
23.04.2017 07:00:00 3,3 0,9 2,2 14 8 18 10 W 1024,4 29 0,0
23.04.2017 06:00:00 3,3 1,0 2,3 14 8 25 14 W 1024,1 26 0,0
23.04.2017 05:00:00 3,0 1,1 1,6 14 8 22 12 W 1024,0 28 0,0
23.04.2017 04:00:00 3,2 1,3 2,3 11 6 22 12 W 1024,1 29 0,0
23.04.2017 03:00:00 3,7 1,2 2,8 14 8 18 10 W 1024,1 32 0,0
23.04.2017 02:00:00 4,1 2,0 2,5 18 10 29 16 W 1024,4 9 0,0
23.04.2017 01:00:00 4,5 1,6 3,6 11 6 18 10 W 1024,5 39 0,0
23.04.2017 00:00:00 4,4 1,6 3,7 14 8 25 14 W 1024,4 40 0,0
22.04.2017 23:00:00 4,6 1,9 3,9 14 8 29 16 W 1024,5 17 0,0
22.04.2017 22:00:00 4,9 1,7 3,8 11 6 18 10 W 1024,4 28 0,0
22.04.2017 21:00:00 5,2 1,6 4,2 14 8 25 14 WNW 1024,3 33 0,0
22.04.2017 20:00:00 6,4 2,4 5,4 14 8 36 19 W 1024,2 36 0,1
22.04.2017 19:00:00 7,2 1,9 6,9 18 10 29 16 NW 1024,2 28 0,0
22.04.2017 18:00:00 7,3 1,7 7,2 25 14 36 19 NNW 1024,2 26 0,0
22.04.2017 17:00:00 9,2 1,4 9,7 22 12 43 23 NW 1024,0 30 0,0
22.04.2017 16:00:00 8,8 0,5 9,1 29 16 47 25 NW 1024,2 38 0,0
22.04.2017 15:00:00 9,9 2,2 8,4 18 10 43 23 WNW 1024,5 24 0,0
22.04.2017 14:00:00 8,8 0,2 9,1 29 16 47 25 NW 1024,9 38 0,0
22.04.2017 13:00:00 9,4 0,9 9,2 36 19 50 27 NW 1024,9 33 0,0
22.04.2017 12:00:00 8,5 0,6 9,0 32 18 47 25 NW 1025,0 32 0,0
22.04.2017 11:00:00 8,5 2,0 8,1 29 16 43 23 NW 1025,2 31 0,0
22.04.2017 10:00:00 5,0 2,5 5,0 25 14 43 23 WNW 1025,3 10 0,3
22.04.2017 09:00:00 7,2 2,5 6,5 22 12 36 19 WNW 1025,0 25 0,0
22.04.2017 08:00:00 5,9 3,1 5,2 18 10 32 18 WNW 1024,8 22 0,0
22.04.2017 07:00:00 5,1 2,9 3,4 14 8 18 10 W 1024,5 18 0,0
22.04.2017 06:00:00 5,2 3,0 4,0 14 8 32 18 W 1024,4 20 0,1
22.04.2017 05:00:00 6,4 4,2 5,8 14 8 29 16 WNW 1024,5 14 0,0
22.04.2017 04:00:00 6,5 5,2 5,7 11 6 18 10 W 1024,6 22 0,0
22.04.2017 03:00:00 7,0 5,6 6,5 11 6 18 10 W 1024,4 31 0,0
22.04.2017 02:00:00 7,1 5,7 6,7 11 6 22 12 W 1024,6 33 0,0
22.04.2017 01:00:00 7,4 5,6 6,8 11 6 32 18 WNW 1024,9 39 0,0
22.04.2017 00:00:00 7,9 5,9 7,5 22 12 32 18 NNW 1025,0 28 0,2
21.04.2017 23:00:00 9,3 8,7 9,0 14 8 29 16 WNW 1024,7 10 0,3
21.04.2017 22:00:00 9,7 8,9 9,4 22 12 32 18 W 1024,7 9 0,1
21.04.2017 21:00:00 9,8 8,7 9,4 18 10 36 19 W 1024,7 4,7 0,0
21.04.2017 20:00:00 11,0 7,2 10,6 22 12 36 19 W 1024,8 28 0,0
21.04.2017 19:00:00 11,4 6,9 10,9 25 14 43 23 W 1025,2 22 0,0
21.04.2017 18:00:00 12,5 5,7 12,2 29 16 47 25 W 1025,4 34 0,0
21.04.2017 17:00:00 12,5 5,8 12,2 29 16 47 25 W 1025,8 32 0,0
21.04.2017 16:00:00 12,1 6,2 11,8 36 19 50 27 W 1026,6 20 0,0
21.04.2017 15:00:00 13,9 8,2 13,7 25 14 40 21 W 1026,5 33 0,0
21.04.2017 14:00:00 14,2 8,6 14,6 25 14 40 21 WZW 1027,1 24 0,0
21.04.2017 13:00:00 13,0 9,2 13,2 29 16 36 19 WZW 1027,5 12 0,0
21.04.2017 12:00:00 13,0 9,1 13,1 22 12 32 18 ZW 1027,8 9 0,0
21.04.2017 11:00:00 11,9 8,1 12,0 18 10 29 16 WZW 1028,1 9 0,0
21.04.2017 10:00:00 11,8 7,7 12,1 18 10 29 16 ZW 1028,3 9 0,0
21.04.2017 09:00:00 9,9 6,3 9,7 18 10 25 14 ZW 1028,6 9 0,0
21.04.2017 08:00:00 8,1 5,0 7,6 14 8 18 10 ZW 1028,9 9 0,0
21.04.2017 07:00:00 7,7 4,4 7,1 14 8 18 10 ZW 1028,9 9 0,0
21.04.2017 06:00:00 7,6 4,0 7,0 11 6 18 10 ZW 1029,1 9 0,0
21.04.2017 05:00:00 7,4 4,1 6,8 11 6 18 10 ZW 1029,6 9 0,0
21.04.2017 04:00:00 7,2 4,2 6,7 11 6 18 10 ZW 1030,2 9 0,0
21.04.2017 03:00:00 7,4 3,6 6,9 7 4 14 8 ZW 1030,7 10 0,0
21.04.2017 02:00:00 7,1 3,0 6,7 11 6 14 8 ZW 1031,3 10 0,0
21.04.2017 01:00:00 6,4 3,3 5,4 11 6 14 8 ZW 1031,8 10 0,0
21.04.2017 00:00:00 4,9 2,6 3,6 7 4 11 6 ZW 1032,3 9 0,0
20.04.2017 23:00:00 6,0 3,0 4,6 7 4 14 8 WZW 1032,6 11 0,0
20.04.2017 22:00:00 8,1 3,7 7,2 11 6 14 8 WZW 1033,0 14 0,0
20.04.2017 21:00:00 9,0 3,5 8,5 11 6 18 10 W 1033,1 16 0,0
20.04.2017 20:00:00 9,5 3,1 9,1 11 6 29 16 W 1033,1 16 0,0
20.04.2017 19:00:00 10,2 2,6 9,8 18 10 29 16 W 1033,5 18 0,0
20.04.2017 18:00:00 10,9 2,3 10,9 18 10 29 16 W 1033,5 23 0,0
20.04.2017 17:00:00 11,4 0,1 12,2 14 8 32 18 W 1033,9 25 0,0
20.04.2017 16:00:00 11,5 -2,3 13,1 22 12 32 18 W 1034,5 32 0,0
20.04.2017 15:00:00 11,4 -1,1 12,9 14 8 29 16 ZW 1035,3 33 0,0
20.04.2017 14:00:00 11,2 0,0 12,6 14 8 25 14 W 1035,6 29 0,0
20.04.2017 13:00:00 9,8 -2,1 11,4 14 8 25 14 W 1036,2 34 0,0
20.04.2017 12:00:00 8,6 -2,5 10,5 14 8 36 19 W 1036,6 33 0,0
20.04.2017 11:00:00 8,1 -3,2 8,9 14 8 29 16 WZW 1036,9 38 0,0
20.04.2017 10:00:00 6,1 -1,0 6,4 11 6 18 10 ZW 1037,0 39 0,0
20.04.2017 09:00:00 3,4 -0,9 3,1 7 4 11 6 ZZW 1037,1 28 0,0
20.04.2017 08:00:00 0,5 -2,1 -0,9 0 0 4 2 N 1037,1 18 0,0
20.04.2017 07:00:00 -3,6 -4,6 -4,6 0 0 4 2 N 1037,1 8 0,0
20.04.2017 06:00:00 -2,8 -3,4 -4,8 0 0 4 2 N 1036,9 7 0,0

tt = temperatuur
td = dauwpunt
tt 5cm = temperatuur 5cm
ff = windsnelheid
fx = windstoten
dd = windrichting
ppp = luchtdruk
vv = zicht
rr = neerslag

Weerstations in de omgeving